Tracking 23731 objects as of 26-Sep-2021
HD Live streaming from Space Station
objects crossing your sky now

STARLINK-1809

Track STARLINK-1809 now!
10-day predictions
STARLINK-1809 is classified as:


NORAD ID: 46708
Int'l Code: 2020-073AQ
Perigee: 540.7 km
Apogee: 542.3 km
Inclination: 53.1 °
Period: 95.3 minutes
Semi major axis: 6912 km
RCS: Unknown
Launch date: October 18, 2020
Source: United States (US)
Launch site: AIR FORCE EASTERN TEST RANGE (AFETR)
aabbcc
Your satellite tracking list
Your tracking list is empty




NASA's NSSDC Master Catalog

Two Line Element Set (TLE):
1 46708U 20073AQ  21269.12775702  .00339118  00000-0  19369-1 0  9992
2 46708  53.0547 318.9714 0001169  81.7531 278.3592 15.10596537 52887
Source of the keplerian elements: AFSPC